This is the latest recevied weather packets stored in our database for station/object N3TTT-13. If no packets are shown the sender has not sent any weather packets the latest 10 day(s).
| Time | Temp. | Humidity | Pressure | Rain* | Wind** | Luminosity | Snow |
|---|---|---|---|---|---|---|---|
| 1777678244 | 14.44° C | 65% | 1011.9 hPa | 0 mm | - | 10 W/m² | - |
| 1777677940 | 14.44° C | 68% | 1011.8 hPa | 0 mm | - | 11 W/m² | - |
| 1777677638 | 14.44° C | 67% | 1011.8 hPa | 0 mm | - | 14 W/m² | - |
| 1777677335 | 14.44° C | 74% | 1011.7 hPa | 0 mm | - | 16 W/m² | - |
| 1777677033 | 14.44° C | 73% | 1011.7 hPa | 0 mm | - | 18 W/m² | - |
| 1777676732 | 15° C | 72% | 1011.6 hPa | 0 mm | - | 19 W/m² | - |
| 1777676429 | 15.56° C | 70% | 1011.6 hPa | 0 mm | - | 21 W/m² | - |
| 1777676127 | 15.56° C | 68% | 1011.4 hPa | 0 mm | - | 22 W/m² | - |
| 1777675823 | 15.56° C | 68% | 1011.6 hPa | 0 mm | - | 23 W/m² | - |
| 1777675521 | 15.56° C | 66% | 1011.5 hPa | 0 mm | - | 25 W/m² | - |
| 1777675217 | 16.11° C | 66% | 1011.4 hPa | 0 mm | - | 26 W/m² | - |
| 1777674914 | 16.11° C | 64% | 1011.6 hPa | 0 mm | - | 27 W/m² | - |
| 1777674610 | 16.11° C | 63% | 1011.9 hPa | 0 mm | - | 29 W/m² | - |
| 1777674307 | 16.11° C | 63% | 1011.7 hPa | 0 mm | - | 30 W/m² | - |
| 1777674004 | 16.11° C | 62% | 1011.6 hPa | 0 mm | - | 30 W/m² | - |
| 1777673700 | 16.11° C | 62% | 1011.6 hPa | 0 mm | - | 39 W/m² | - |
| 1777673398 | 16.11° C | 61% | 1011.7 hPa | 0 mm | - | 41 W/m² | - |
| 1777673095 | 16.11° C | 60% | 1011.5 hPa | 0 mm | - | 35 W/m² | - |
| 1777672791 | 16.67° C | 60% | 1011.6 hPa | 0 mm | - | 37 W/m² | - |
| 1777672488 | 16.67° C | 58% | 1011.6 hPa | 0 mm | - | 35 W/m² | - |
| 1777672183 | 16.67° C | 59% | 1011.7 hPa | 0 mm | - | 42 W/m² | - |
| 1777671879 | 16.67° C | 57% | 1011.6 hPa | 0 mm | - | 36 W/m² | - |
| 1777671574 | 16.67° C | 56% | 1011.5 hPa | 0 mm | - | 45 W/m² | - |
| 1777671272 | 16.67° C | 55% | 1011.8 hPa | 0 mm | - | 39 W/m² | - |
| 1777670967 | 17.22° C | 53% | 1011.8 hPa | 0 mm | - | 39 W/m² | - |
* Rain latest hour (hover to see other rain measurements)
** Current wind speed in m/s (hover to see current wind gust speed)